P/2019 A1 ( PanSTARRS )

Japanese version
Home page
Updated on January 8, 2019

---------------------------------------------------------------------

* Profile

Discovery Date January 3, 2019
Magnitude 20.5 mag
Discoverer Pan-STARRS 1 telescope (Haleakala)

* Orbital Elements

Epoch 2018 Oct. 9.0 TT = JDT 2458400.5
T 2018 Oct. 11.06428 TT                                 MPCW
q   2.2117223            (2000.0)            P               Q
n   0.08482728     Peri.  150.85550     -0.23790215     -0.95526199
a   5.1299410      Node   312.29967     +0.83877132     -0.11083088
e   0.5688601      Incl.   13.74346     +0.48976039     -0.27420984
P  11.62
From 23 observations 2018 Dec. 4-2019 Jan. 7, mean residual 0".3.

* Magnitudes Graph

        m1 = 15.8 + 5 log d + 10.0 log r

---------------------------------------------------------------------

The orbital elements are published on M.P.E.C. 2019-A101.
The magnitudes graphs are made with Comet for Windows.

---------------------------------------------------------------------

Copyright(C) Seiichi Yoshida (comet@aerith.net). All rights reserved.